Naval Air Station Jrb Fort Worth, TX

3:34 AM CDT on August 24, 2016 (GMT -0500)
Fort Worth Naval Air Station Jrb

Weather History for KNFW - June, 2013

Change the Weather History Date:

Saturday, June 8, 2013

  Actual Average Record
Temperature  
Mean Temperature 78 °F -  
Max Temperature 90 °F 86 °F 97 °F (2008)
Min Temperature 66 °F 69 °F 64 °F (2003)
Cooling Degree Days 13    
Growing Degree Days 28 (Base 50)    
Moisture  
Dew Point 56 °F    
Average Humidity 46    
Maximum Humidity 73    
Minimum Humidity 30    
Precipitation  
Precipitation 0.00 in - - ()
Sea Level Pressure  
Sea Level Pressure 29.88 in    
Wind  
Wind Speed 6 mph (SSE)    
Max Wind Speed 16 mph    
Max Gust Speed 22 mph    
Visibility 10 miles    
Events      
Averages and records for this station are not official NWS values.
T = Trace of Precipitation, MM = Missing Value Source: NWS Daily Summary

Daily Weather History Graph

Daily Weather History Graph

Search for Another Location

Airport or City:

Trip Planner

Search our weather history database for the weather conditions in past years. The results will help you decide how hot, cold, wet, or windy it might be!

Date:

Astronomy

Jun. 08, 2013 Rise Set
Actual Time 6:21 AM CDT 8:36 PM CDT
Civil Twilight 5:52 AM CDT 9:05 PM CDT
Nautical Twilight 5:18 AM CDT 9:39 PM CDT
Astronomical Twilight 4:40 AM CDT 10:17 PM CDT
Moon 6:27 AM CDT (6/8) 8:43 PM CDT (6/8)
Length of Visible Light 15h 12m
Length of Day
14h 15m
New Moon, 0% of the Moon is Illuminated
Jun 8
New Moon
Jun 16
First Quarter
Jun 23
Full
Jun 29
Last Quarter
Jul 8
New

Hourly Weather History & Observations

Time (CDT) Temp. Heat Index Dew Point Humidity Pressure Visibility Wind Dir Wind Speed Gust Speed Precip Events Conditions
12:52 AM 72.0 °F - 55.0 °F 55% 29.94 in 10.0 mi Calm Calm - N/A   Clear
1:52 AM 70.0 °F - 60.1 °F 71% 29.95 in 10.0 mi NW 6.9 mph - N/A   Clear
2:52 AM 69.1 °F - 55.0 °F 61% 29.92 in 10.0 mi Calm Calm - N/A   Clear
3:52 AM 68.0 °F - 59.0 °F 73% 29.92 in 10.0 mi Calm Calm - N/A   Clear
4:52 AM 68.0 °F - 55.0 °F 63% 29.91 in 10.0 mi Calm Calm - N/A   Clear
5:52 AM 66.9 °F - 55.9 °F 68% 29.92 in 10.0 mi South 3.5 mph - N/A   Clear
6:52 AM 66.9 °F - 55.9 °F 68% 29.93 in 10.0 mi SSE 3.5 mph - N/A   Clear
7:52 AM 70.0 °F - 55.9 °F 61% 29.93 in 10.0 mi East 8.1 mph - N/A   Clear
8:22 AM 71.6 °F - 55.4 °F 57% 29.98 in 10.0 mi SSE 3.5 mph - N/A   Partly Cloudy
8:52 AM 75.0 °F - 57.0 °F 53% 29.94 in 10.0 mi South 8.1 mph - N/A   Partly Cloudy
9:52 AM 80.1 °F 79.9 °F 53.1 °F 39% 29.94 in 10.0 mi SSE 11.5 mph - N/A   Partly Cloudy
10:52 AM 82.9 °F 81.9 °F 54.0 °F 37% 29.91 in 10.0 mi SSE 10.4 mph 20.7 mph N/A   Partly Cloudy
11:52 AM 84.9 °F 83.3 °F 54.0 °F 34% 29.91 in 10.0 mi SE 11.5 mph - N/A   Partly Cloudy
12:52 PM 86.0 °F 84.5 °F 55.0 °F 35% 29.90 in 10.0 mi South 10.4 mph 20.7 mph N/A   Partly Cloudy
1:52 PM 88.0 °F 86.1 °F 55.0 °F 32% 29.88 in 10.0 mi South 13.8 mph 19.6 mph N/A   Mostly Cloudy
2:52 PM 88.0 °F 86.1 °F 55.0 °F 32% 29.86 in 10.0 mi SE 5.8 mph 19.6 mph N/A   Mostly Cloudy
3:52 PM 90.0 °F 88.1 °F 55.9 °F 31% 29.83 in 10.0 mi SSE 13.8 mph 21.9 mph N/A   Mostly Cloudy
4:52 PM 90.0 °F 87.9 °F 55.0 °F 30% 29.82 in 10.0 mi SSE 13.8 mph - N/A   Mostly Cloudy
5:52 PM 89.1 °F 87.1 °F 55.0 °F 31% 29.80 in 10.0 mi SSE 15.0 mph - N/A   Clear
6:52 PM 88.0 °F 86.1 °F 55.0 °F 32% 29.79 in 10.0 mi SE 16.1 mph 20.7 mph N/A   Clear
7:52 PM 87.1 °F 85.3 °F 55.0 °F 33% 29.79 in 10.0 mi SSE 11.5 mph - N/A   Clear
8:52 PM 86.0 °F 84.5 °F 55.0 °F 35% 29.78 in 10.0 mi SE 9.2 mph - N/A   Clear
9:52 PM 84.0 °F 83.3 °F 57.0 °F 40% 29.81 in 10.0 mi ESE 11.5 mph - N/A   Clear
10:52 PM 82.9 °F 82.4 °F 57.0 °F 41% 29.82 in 10.0 mi SE 12.7 mph - N/A   Clear
11:52 PM 82.0 °F 81.7 °F 57.0 °F 42% 29.86 in 10.0 mi SE 9.2 mph - N/A   Mostly Cloudy